Year,Month,Day,Hour,Minute,Value (Times are PST for temperature in C)
2013,07,03,00,00,14.20
2013,07,03,00,01,14.20
2013,07,03,00,02,14.10
2013,07,03,00,03,14.10
2013,07,03,00,04,14.10
2013,07,03,00,05,14.00
2013,07,03,00,06,13.90
2013,07,03,00,07,13.90
2013,07,03,00,08,13.90
2013,07,03,00,09,13.90
2013,07,03,00,10,13.80
2013,07,03,00,11,13.80
2013,07,03,00,12,13.80
2013,07,03,00,13,13.80
2013,07,03,00,14,13.80
2013,07,03,00,15,13.70
2013,07,03,00,16,13.70
2013,07,03,00,17,13.70
2013,07,03,00,18,13.70
2013,07,03,00,19,13.70
2013,07,03,00,20,13.60
2013,07,03,00,21,13.60
2013,07,03,00,22,13.60
2013,07,03,00,23,13.60
2013,07,03,00,24,13.60
2013,07,03,00,25,13.60
2013,07,03,00,26,13.60
2013,07,03,00,27,13.60
2013,07,03,00,28,13.50
2013,07,03,00,29,13.50
2013,07,03,00,30,13.50
2013,07,03,00,31,13.50
2013,07,03,00,32,13.50
2013,07,03,00,33,13.40
2013,07,03,00,34,13.40
2013,07,03,00,35,13.40
2013,07,03,00,36,13.40
2013,07,03,00,37,13.30
2013,07,03,00,38,13.30
2013,07,03,00,39,13.30
2013,07,03,00,40,13.30
2013,07,03,00,41,13.20
2013,07,03,00,42,13.20
2013,07,03,00,43,13.20
2013,07,03,00,44,13.20
2013,07,03,00,45,13.20
2013,07,03,00,46,13.10
2013,07,03,00,47,13.10
2013,07,03,00,48,13.10
2013,07,03,00,49,13.10
2013,07,03,00,50,13.00
2013,07,03,00,51,13.00
2013,07,03,00,52,13.00
2013,07,03,00,53,12.90
2013,07,03,00,54,12.90
2013,07,03,00,55,12.90
2013,07,03,00,56,12.90
2013,07,03,00,57,12.90
2013,07,03,00,58,12.80
2013,07,03,00,59,12.80
2013,07,03,01,00,12.80
2013,07,03,01,01,12.80
2013,07,03,01,02,12.80
2013,07,03,01,03,12.80
2013,07,03,01,04,12.70
2013,07,03,01,05,12.70
2013,07,03,01,06,12.70
2013,07,03,01,07,12.70
2013,07,03,01,08,12.70
2013,07,03,01,09,12.60
2013,07,03,01,10,12.60
2013,07,03,01,11,12.60
2013,07,03,01,12,12.60
2013,07,03,01,13,12.60
2013,07,03,01,14,12.50
2013,07,03,01,15,12.50
2013,07,03,01,16,12.50
2013,07,03,01,17,12.50
2013,07,03,01,18,12.50
2013,07,03,01,19,12.50
2013,07,03,01,20,12.40
2013,07,03,01,21,12.40
2013,07,03,01,22,12.40
2013,07,03,01,23,12.40
2013,07,03,01,24,12.40
2013,07,03,01,25,12.40
2013,07,03,01,26,12.40
2013,07,03,01,27,12.30
2013,07,03,01,28,12.30
2013,07,03,01,29,12.30
2013,07,03,01,30,12.30
2013,07,03,01,31,12.30
2013,07,03,01,32,12.30
2013,07,03,01,33,12.30
2013,07,03,01,34,12.30
2013,07,03,01,35,12.30
2013,07,03,01,36,12.30
2013,07,03,01,37,12.20
2013,07,03,01,38,12.20
2013,07,03,01,39,12.20
2013,07,03,01,40,12.20
2013,07,03,01,41,12.20
2013,07,03,01,42,12.20
2013,07,03,01,43,12.20
2013,07,03,01,44,12.20
2013,07,03,01,45,12.20
2013,07,03,01,46,12.20
2013,07,03,01,47,12.20
2013,07,03,01,48,12.20
2013,07,03,01,49,12.20
2013,07,03,01,50,12.20
2013,07,03,01,51,12.20
2013,07,03,01,52,12.20
2013,07,03,01,53,12.20
2013,07,03,01,54,12.20
2013,07,03,01,55,12.20
2013,07,03,01,56,12.20
2013,07,03,01,57,12.20
2013,07,03,01,58,12.20
2013,07,03,01,59,12.20
2013,07,03,02,00,12.20
2013,07,03,02,01,12.20
2013,07,03,02,02,12.20
2013,07,03,02,03,12.10
2013,07,03,02,04,12.10
2013,07,03,02,05,12.10
2013,07,03,02,06,12.10
2013,07,03,02,07,12.10
2013,07,03,02,08,12.10
2013,07,03,02,09,12.10
2013,07,03,02,10,12.00
2013,07,03,02,11,12.00
2013,07,03,02,12,12.00
2013,07,03,02,13,12.00
2013,07,03,02,14,11.90
2013,07,03,02,15,11.90
2013,07,03,02,16,11.90
2013,07,03,02,17,11.90
2013,07,03,02,18,11.90
2013,07,03,02,19,11.90
2013,07,03,02,20,11.80
2013,07,03,02,21,11.80
2013,07,03,02,22,11.80
2013,07,03,02,23,11.80
2013,07,03,02,24,11.80
2013,07,03,02,25,11.80
2013,07,03,02,26,11.80
2013,07,03,02,27,11.80
2013,07,03,02,28,11.70
2013,07,03,02,29,11.70
2013,07,03,02,30,11.70
2013,07,03,02,31,11.70
2013,07,03,02,32,11.70
2013,07,03,02,33,11.70
2013,07,03,02,34,11.60
2013,07,03,02,35,11.60
2013,07,03,02,36,11.60
2013,07,03,02,37,11.60
2013,07,03,02,38,11.60
2013,07,03,02,39,11.60
2013,07,03,02,40,11.60
2013,07,03,02,41,11.50
2013,07,03,02,42,11.50
2013,07,03,02,43,11.50
2013,07,03,02,44,11.50
2013,07,03,02,45,11.50
2013,07,03,02,46,11.40
2013,07,03,02,47,11.40
2013,07,03,02,48,11.40
2013,07,03,02,49,11.40
2013,07,03,02,50,11.40
2013,07,03,02,51,11.40
2013,07,03,02,52,11.40
2013,07,03,02,53,11.30
2013,07,03,02,54,11.30
2013,07,03,02,55,11.30
2013,07,03,02,56,11.30
2013,07,03,02,57,11.30
2013,07,03,02,58,11.30
2013,07,03,02,59,11.30
2013,07,03,03,00,11.20
2013,07,03,03,01,11.20
2013,07,03,03,02,11.20
2013,07,03,03,03,11.20
2013,07,03,03,04,11.20
2013,07,03,03,05,11.20
2013,07,03,03,06,11.10
2013,07,03,03,07,11.10
2013,07,03,03,08,11.10
2013,07,03,03,09,11.10
2013,07,03,03,10,11.10
2013,07,03,03,11,11.10
2013,07,03,03,12,11.10
2013,07,03,03,13,11.00
2013,07,03,03,14,11.00
2013,07,03,03,15,11.00
2013,07,03,03,16,11.00
2013,07,03,03,17,11.00
2013,07,03,03,18,11.00
2013,07,03,03,19,11.00
2013,07,03,03,20,10.90
2013,07,03,03,21,10.90
2013,07,03,03,22,10.90
2013,07,03,03,23,10.90
2013,07,03,03,24,10.90
2013,07,03,03,25,10.90
2013,07,03,03,26,10.90
2013,07,03,03,27,10.90
2013,07,03,03,28,10.90
2013,07,03,03,29,10.90
2013,07,03,03,30,10.80
2013,07,03,03,31,10.80
2013,07,03,03,32,10.80
2013,07,03,03,33,10.80
2013,07,03,03,34,10.80
2013,07,03,03,35,10.80
2013,07,03,03,36,10.80
2013,07,03,03,37,10.80
2013,07,03,03,38,10.80
2013,07,03,03,39,10.80
2013,07,03,03,40,10.80
2013,07,03,03,41,10.80
2013,07,03,03,42,10.80
2013,07,03,03,43,10.80
2013,07,03,03,44,10.70
2013,07,03,03,45,10.70
2013,07,03,03,46,10.70
2013,07,03,03,47,10.70
2013,07,03,03,48,10.70
2013,07,03,03,49,10.70
2013,07,03,03,50,10.70
2013,07,03,03,51,10.70
2013,07,03,03,52,10.70
2013,07,03,03,53,10.70
2013,07,03,03,54,10.60
2013,07,03,03,55,10.60
2013,07,03,03,56,10.60
2013,07,03,03,57,10.60
2013,07,03,03,58,10.60
2013,07,03,03,59,10.60
2013,07,03,04,00,10.50
2013,07,03,04,01,10.50
2013,07,03,04,02,10.50
2013,07,03,04,03,10.50
2013,07,03,04,04,10.50
2013,07,03,04,05,10.50
2013,07,03,04,06,10.50
2013,07,03,04,07,10.50
2013,07,03,04,08,10.40
2013,07,03,04,09,10.40
2013,07,03,04,10,10.40
2013,07,03,04,11,10.40
2013,07,03,04,12,10.40
2013,07,03,04,13,10.40
2013,07,03,04,14,10.40
2013,07,03,04,15,10.40
2013,07,03,04,16,10.30
2013,07,03,04,17,10.30
2013,07,03,04,18,10.30
2013,07,03,04,19,10.30
2013,07,03,04,20,10.30
2013,07,03,04,21,10.30
2013,07,03,04,22,10.30
2013,07,03,04,23,10.30
2013,07,03,04,24,10.30
2013,07,03,04,25,10.30
2013,07,03,04,26,10.30
2013,07,03,04,27,10.30
2013,07,03,04,28,10.30
2013,07,03,04,29,10.20
2013,07,03,04,30,10.20
2013,07,03,04,31,10.20
2013,07,03,04,32,10.20
2013,07,03,04,33,10.20
2013,07,03,04,34,10.20
2013,07,03,04,35,10.20
2013,07,03,04,36,10.20
2013,07,03,04,37,10.20
2013,07,03,04,38,10.20
2013,07,03,04,39,10.20
2013,07,03,04,40,10.20
2013,07,03,04,41,10.10
2013,07,03,04,42,10.10
2013,07,03,04,43,10.10
2013,07,03,04,44,10.10
2013,07,03,04,45,10.10
2013,07,03,04,46,10.10
2013,07,03,04,47,10.10
2013,07,03,04,48,10.10
2013,07,03,04,49,10.10
2013,07,03,04,50,10.00
2013,07,03,04,51,10.00
2013,07,03,04,52,10.00
2013,07,03,04,53,10.00
2013,07,03,04,54,10.00
2013,07,03,04,55,9.90
2013,07,03,04,56,9.90
2013,07,03,04,57,9.90
2013,07,03,04,58,9.90
2013,07,03,04,59,9.90
2013,07,03,05,00,9.90
2013,07,03,05,01,9.90
2013,07,03,05,02,9.90
2013,07,03,05,03,9.80
2013,07,03,05,04,9.80
2013,07,03,05,05,9.80
2013,07,03,05,06,9.80
2013,07,03,05,07,9.80
2013,07,03,05,08,9.80
2013,07,03,05,09,9.80
2013,07,03,05,10,9.80
2013,07,03,05,11,9.80
2013,07,03,05,12,9.80
2013,07,03,05,13,9.80
2013,07,03,05,14,9.80
2013,07,03,05,15,9.80
2013,07,03,05,16,9.70
2013,07,03,05,17,9.70
2013,07,03,05,18,9.70
2013,07,03,05,19,9.70
2013,07,03,05,20,9.70
2013,07,03,05,21,9.70
2013,07,03,05,22,9.70
2013,07,03,05,23,9.70
2013,07,03,05,24,9.70
2013,07,03,05,25,9.60
2013,07,03,05,26,9.60
2013,07,03,05,27,9.60
2013,07,03,05,28,9.60
2013,07,03,05,29,9.60
2013,07,03,05,30,9.60
2013,07,03,05,31,9.60
2013,07,03,05,32,9.60
2013,07,03,05,33,9.50
2013,07,03,05,34,9.50
2013,07,03,05,35,9.50
2013,07,03,05,36,9.50
2013,07,03,05,37,9.50
2013,07,03,05,38,9.40
2013,07,03,05,39,9.40
2013,07,03,05,40,9.40
2013,07,03,05,41,9.40
2013,07,03,05,42,9.40
2013,07,03,05,43,9.40
2013,07,03,05,44,9.40
2013,07,03,05,45,9.40
2013,07,03,05,46,9.40
2013,07,03,05,47,9.40
2013,07,03,05,48,9.40
2013,07,03,05,49,9.40
2013,07,03,05,50,9.40
2013,07,03,05,51,9.40
2013,07,03,05,52,9.40
2013,07,03,05,53,9.40
2013,07,03,05,54,9.40
2013,07,03,05,55,9.40
2013,07,03,05,56,9.40
2013,07,03,05,57,9.40
2013,07,03,05,58,9.40
2013,07,03,05,59,9.40
2013,07,03,06,00,9.40
2013,07,03,06,01,9.30
2013,07,03,06,02,9.30
2013,07,03,06,03,9.30
2013,07,03,06,04,9.30
2013,07,03,06,05,9.30
2013,07,03,06,06,9.30
2013,07,03,06,07,9.30
2013,07,03,06,08,9.30
2013,07,03,06,09,9.30
2013,07,03,06,10,9.30
2013,07,03,06,11,9.30
2013,07,03,06,12,9.30
2013,07,03,06,13,9.30
2013,07,03,06,14,9.30
2013,07,03,06,15,9.30
2013,07,03,06,16,9.40
2013,07,03,06,17,9.40
2013,07,03,06,18,9.40
2013,07,03,06,19,9.40
2013,07,03,06,20,9.40
2013,07,03,06,21,9.40
2013,07,03,06,22,9.40
2013,07,03,06,23,9.40
2013,07,03,06,24,9.40
2013,07,03,06,25,9.40
2013,07,03,06,26,9.50
2013,07,03,06,27,9.50
2013,07,03,06,28,9.50
2013,07,03,06,29,9.50
2013,07,03,06,30,9.40
2013,07,03,06,31,9.50
2013,07,03,06,32,9.50
2013,07,03,06,33,9.40
2013,07,03,06,34,9.50
2013,07,03,06,35,9.40
2013,07,03,06,36,9.40
2013,07,03,06,37,9.40
2013,07,03,06,38,9.50
2013,07,03,06,39,9.50
2013,07,03,06,40,9.50
2013,07,03,06,41,9.50
2013,07,03,06,42,9.50
2013,07,03,06,43,9.50
2013,07,03,06,44,9.50
2013,07,03,06,45,9.50
2013,07,03,06,46,9.60
2013,07,03,06,47,9.60
2013,07,03,06,48,9.60
2013,07,03,06,49,9.70
2013,07,03,06,50,9.70
2013,07,03,06,51,9.70
2013,07,03,06,52,9.80
2013,07,03,06,53,9.80
2013,07,03,06,54,9.90
2013,07,03,06,55,10.00
2013,07,03,06,56,10.00
2013,07,03,06,57,10.10
2013,07,03,06,58,10.20
2013,07,03,06,59,10.20
2013,07,03,07,00,10.30
2013,07,03,07,01,10.40
2013,07,03,07,02,10.50
2013,07,03,07,03,10.60
2013,07,03,07,04,10.60
2013,07,03,07,05,10.70
2013,07,03,07,06,10.80
2013,07,03,07,07,10.80
2013,07,03,07,08,10.90
2013,07,03,07,09,11.00
2013,07,03,07,10,11.10
2013,07,03,07,11,11.10
2013,07,03,07,12,11.20
2013,07,03,07,13,11.30
2013,07,03,07,14,11.30
2013,07,03,07,15,11.40
2013,07,03,07,16,11.50
2013,07,03,07,17,11.50
2013,07,03,07,18,11.60
2013,07,03,07,19,11.70
2013,07,03,07,20,11.70
2013,07,03,07,21,11.80
2013,07,03,07,22,11.80
2013,07,03,07,23,11.90
2013,07,03,07,24,12.00
2013,07,03,07,25,12.00
2013,07,03,07,26,12.10
2013,07,03,07,27,12.20
2013,07,03,07,28,12.20
2013,07,03,07,29,12.30
2013,07,03,07,30,12.40
2013,07,03,07,31,12.50
2013,07,03,07,32,12.50
2013,07,03,07,33,12.60
2013,07,03,07,34,12.70
2013,07,03,07,35,12.70
2013,07,03,07,36,12.80
2013,07,03,07,37,12.90
2013,07,03,07,38,12.90
2013,07,03,07,39,13.00
2013,07,03,07,40,13.00
2013,07,03,07,41,13.10
2013,07,03,07,42,13.10
2013,07,03,07,43,13.10
2013,07,03,07,44,13.10
2013,07,03,07,45,13.20
2013,07,03,07,46,13.20
2013,07,03,07,47,13.20
2013,07,03,07,48,13.20
2013,07,03,07,49,13.20
2013,07,03,07,50,13.20
2013,07,03,07,51,13.20
2013,07,03,07,52,13.30
2013,07,03,07,53,13.30
2013,07,03,07,54,13.30
2013,07,03,07,55,13.30
2013,07,03,07,56,13.30
2013,07,03,07,57,13.30
2013,07,03,07,58,13.30
2013,07,03,07,59,13.30
2013,07,03,08,00,13.30
2013,07,03,08,01,13.30
2013,07,03,08,02,13.30
2013,07,03,08,03,13.40
2013,07,03,08,04,13.50
2013,07,03,08,05,13.50
2013,07,03,08,06,13.60
2013,07,03,08,07,13.60
2013,07,03,08,08,13.70
2013,07,03,08,09,13.70
2013,07,03,08,10,13.80
2013,07,03,08,11,13.80
2013,07,03,08,12,13.90
2013,07,03,08,13,14.00
2013,07,03,08,14,14.00
2013,07,03,08,15,14.10
2013,07,03,08,16,14.10
2013,07,03,08,17,14.10
2013,07,03,08,18,14.10
2013,07,03,08,19,14.10
2013,07,03,08,20,14.10
2013,07,03,08,21,14.10
2013,07,03,08,22,14.10
2013,07,03,08,23,14.20
2013,07,03,08,24,14.30
2013,07,03,08,25,14.30
2013,07,03,08,26,14.40
2013,07,03,08,27,14.50
2013,07,03,08,28,14.60
2013,07,03,08,29,14.80
2013,07,03,08,30,14.90
2013,07,03,08,31,15.00
2013,07,03,08,32,15.10
2013,07,03,08,33,15.10
2013,07,03,08,34,15.10
2013,07,03,08,35,15.20
2013,07,03,08,36,15.20
2013,07,03,08,37,15.20
2013,07,03,08,38,15.20
2013,07,03,08,39,15.20
2013,07,03,08,40,15.20
2013,07,03,08,41,15.20
2013,07,03,08,42,15.20
2013,07,03,08,43,15.20
2013,07,03,08,44,15.20
2013,07,03,08,45,15.20
2013,07,03,08,46,15.20
2013,07,03,08,47,15.20
2013,07,03,08,48,15.30
2013,07,03,08,49,15.30
2013,07,03,08,50,15.40
2013,07,03,08,51,15.40
2013,07,03,08,52,15.50
2013,07,03,08,53,15.60
2013,07,03,08,54,15.60
2013,07,03,08,55,15.70
2013,07,03,08,56,15.80
2013,07,03,08,57,15.90
2013,07,03,08,58,16.00
2013,07,03,08,59,16.10
2013,07,03,09,00,16.20
2013,07,03,09,01,16.20
2013,07,03,09,02,16.20
2013,07,03,09,03,16.30
2013,07,03,09,04,16.30
2013,07,03,09,05,16.20
2013,07,03,09,06,16.20
2013,07,03,09,07,16.30
2013,07,03,09,08,16.30
2013,07,03,09,09,16.30
2013,07,03,09,10,16.40
2013,07,03,09,11,16.50
2013,07,03,09,12,16.60
2013,07,03,09,13,16.70
2013,07,03,09,14,16.80
2013,07,03,09,15,16.80
2013,07,03,09,16,16.90
2013,07,03,09,17,17.00
2013,07,03,09,18,17.00
2013,07,03,09,19,17.10
2013,07,03,09,20,17.10
2013,07,03,09,21,17.20
2013,07,03,09,22,17.20
2013,07,03,09,23,17.30
2013,07,03,09,24,17.30
2013,07,03,09,25,17.30
2013,07,03,09,26,17.30
2013,07,03,09,27,17.30
2013,07,03,09,28,17.20
2013,07,03,09,29,17.10
2013,07,03,09,30,17.00
2013,07,03,09,31,17.00
2013,07,03,09,32,16.90
2013,07,03,09,33,16.90
2013,07,03,09,34,16.90
2013,07,03,09,35,16.90
2013,07,03,09,36,17.00
2013,07,03,09,37,17.10
2013,07,03,09,38,17.10
2013,07,03,09,39,17.10
2013,07,03,09,40,17.10
2013,07,03,09,41,17.10
2013,07,03,09,42,17.10
2013,07,03,09,43,17.20
2013,07,03,09,44,17.30
2013,07,03,09,45,17.40
2013,07,03,09,46,17.50
2013,07,03,09,47,17.60
2013,07,03,09,48,17.60
2013,07,03,09,49,17.60
2013,07,03,09,50,17.60
2013,07,03,09,51,17.60
2013,07,03,09,52,17.70
2013,07,03,09,53,17.70
2013,07,03,09,54,17.80
2013,07,03,09,55,17.80
2013,07,03,09,56,17.80
2013,07,03,09,57,17.90
2013,07,03,09,58,17.90
2013,07,03,09,59,17.90
2013,07,03,10,00,17.90
2013,07,03,10,01,17.90
2013,07,03,10,02,17.80
2013,07,03,10,03,17.80
2013,07,03,10,04,17.80
2013,07,03,10,05,17.90
2013,07,03,10,06,17.90
2013,07,03,10,07,17.90
2013,07,03,10,08,18.00
2013,07,03,10,09,18.10
2013,07,03,10,10,18.10
2013,07,03,10,11,18.20
2013,07,03,10,12,18.20
2013,07,03,10,13,18.20
2013,07,03,10,14,18.20
2013,07,03,10,15,18.20
2013,07,03,10,16,18.20
2013,07,03,10,17,18.30
2013,07,03,10,18,18.30
2013,07,03,10,19,18.30
2013,07,03,10,20,18.30
2013,07,03,10,21,18.40
2013,07,03,10,22,18.40
2013,07,03,10,23,18.50
2013,07,03,10,24,18.60
2013,07,03,10,25,18.60
2013,07,03,10,26,18.70
2013,07,03,10,27,18.80
2013,07,03,10,28,18.90
2013,07,03,10,29,19.00
2013,07,03,10,30,19.00
2013,07,03,10,31,19.00
2013,07,03,10,32,19.00
2013,07,03,10,33,19.10
2013,07,03,10,34,19.10
2013,07,03,10,35,19.20
2013,07,03,10,36,19.20
2013,07,03,10,37,19.30
2013,07,03,10,38,19.30
2013,07,03,10,39,19.40
2013,07,03,10,40,19.40
2013,07,03,10,41,19.30
2013,07,03,10,42,19.20
2013,07,03,10,43,19.20
2013,07,03,10,44,19.20
2013,07,03,10,45,19.20
2013,07,03,10,46,19.10
2013,07,03,10,47,19.10
2013,07,03,10,48,19.10
2013,07,03,10,49,19.10
2013,07,03,10,50,19.10
2013,07,03,10,51,19.10
2013,07,03,10,52,19.10
2013,07,03,10,53,19.10
2013,07,03,10,54,19.20
2013,07,03,10,55,19.30
2013,07,03,10,56,19.40
2013,07,03,10,57,19.50
2013,07,03,10,58,19.70
2013,07,03,10,59,19.70
2013,07,03,11,00,19.80
2013,07,03,11,01,19.80
2013,07,03,11,02,19.90
2013,07,03,11,03,19.90
2013,07,03,11,04,19.90
2013,07,03,11,05,20.00
2013,07,03,11,06,19.90
2013,07,03,11,07,19.90
2013,07,03,11,08,19.90
2013,07,03,11,09,19.90
2013,07,03,11,10,19.90
2013,07,03,11,11,19.90
2013,07,03,11,12,19.90
2013,07,03,11,13,19.90
2013,07,03,11,14,19.90
2013,07,03,11,15,19.90
2013,07,03,11,16,19.90
2013,07,03,11,17,20.00
2013,07,03,11,18,20.00
2013,07,03,11,19,20.10
2013,07,03,11,20,20.20
2013,07,03,11,21,20.30
2013,07,03,11,22,20.30
2013,07,03,11,23,20.40
2013,07,03,11,24,20.40
2013,07,03,11,25,20.40
2013,07,03,11,26,20.50
2013,07,03,11,27,20.50
2013,07,03,11,28,20.50
2013,07,03,11,29,20.60
2013,07,03,11,30,20.60
2013,07,03,11,31,20.60
2013,07,03,11,32,20.60
2013,07,03,11,33,20.70
2013,07,03,11,34,20.70
2013,07,03,11,35,20.70
2013,07,03,11,36,20.70
2013,07,03,11,37,20.80
2013,07,03,11,38,20.80
2013,07,03,11,39,20.80
2013,07,03,11,40,20.90
2013,07,03,11,41,20.90
2013,07,03,11,42,21.00
2013,07,03,11,43,21.10
2013,07,03,11,44,21.20
2013,07,03,11,45,21.30
2013,07,03,11,46,21.20
2013,07,03,11,47,21.20
2013,07,03,11,48,21.30
2013,07,03,11,49,21.30
2013,07,03,11,50,21.40
2013,07,03,11,51,21.50
2013,07,03,11,52,21.50
2013,07,03,11,53,21.70
2013,07,03,11,54,21.80
2013,07,03,11,55,21.90
2013,07,03,11,56,22.00
2013,07,03,11,57,22.10
2013,07,03,11,58,22.10
2013,07,03,11,59,22.20
2013,07,03,12,00,22.20
2013,07,03,12,01,22.20
2013,07,03,12,02,22.10
2013,07,03,12,03,22.00
2013,07,03,12,04,22.00
2013,07,03,12,05,21.90
2013,07,03,12,06,21.80
2013,07,03,12,07,21.80
2013,07,03,12,08,21.90
2013,07,03,12,09,21.90
2013,07,03,12,10,22.00
2013,07,03,12,11,22.00
2013,07,03,12,12,22.10
2013,07,03,12,13,22.10
2013,07,03,12,14,22.20
2013,07,03,12,15,22.20
2013,07,03,12,16,22.30
2013,07,03,12,17,22.30
2013,07,03,12,18,22.40
2013,07,03,12,19,22.50
2013,07,03,12,20,22.60
2013,07,03,12,21,22.80
2013,07,03,12,22,22.90
2013,07,03,12,23,22.90
2013,07,03,12,24,23.00
2013,07,03,12,25,23.00
2013,07,03,12,26,23.00
2013,07,03,12,27,23.10
2013,07,03,12,28,23.10
2013,07,03,12,29,23.10
2013,07,03,12,30,23.10
2013,07,03,12,31,23.10
2013,07,03,12,32,23.10
2013,07,03,12,33,23.20
2013,07,03,12,34,23.20
2013,07,03,12,35,23.10
2013,07,03,12,36,23.10
2013,07,03,12,37,23.10
2013,07,03,12,38,23.20
2013,07,03,12,39,23.20
2013,07,03,12,40,23.30
2013,07,03,12,41,23.30
2013,07,03,12,42,23.30
2013,07,03,12,43,23.30
2013,07,03,12,44,23.40
2013,07,03,12,45,23.60
2013,07,03,12,46,23.70
2013,07,03,12,47,23.80
2013,07,03,12,48,23.80
2013,07,03,12,49,23.80
2013,07,03,12,50,23.80
2013,07,03,12,51,23.70
2013,07,03,12,52,23.70
2013,07,03,12,53,23.80
2013,07,03,12,54,23.80
2013,07,03,12,55,23.80
2013,07,03,12,56,23.90
2013,07,03,12,57,23.90
2013,07,03,12,58,23.90
2013,07,03,12,59,23.90
2013,07,03,13,00,23.90
2013,07,03,13,01,23.80
2013,07,03,13,02,23.70
2013,07,03,13,03,23.70
2013,07,03,13,04,23.80
2013,07,03,13,05,23.80
2013,07,03,13,06,23.90
2013,07,03,13,07,23.90
2013,07,03,13,08,23.90
2013,07,03,13,09,23.90
2013,07,03,13,10,24.00
2013,07,03,13,11,24.00
2013,07,03,13,12,24.00
2013,07,03,13,13,24.00
2013,07,03,13,14,24.00
2013,07,03,13,15,24.00
2013,07,03,13,16,24.00
2013,07,03,13,17,24.10
2013,07,03,13,18,24.10
2013,07,03,13,19,24.20
2013,07,03,13,20,24.20
2013,07,03,13,21,24.30
2013,07,03,13,22,24.30
2013,07,03,13,23,24.40
2013,07,03,13,24,24.40
2013,07,03,13,25,24.40
2013,07,03,13,26,24.40
2013,07,03,13,27,24.50
2013,07,03,13,28,24.50
2013,07,03,13,29,24.60
2013,07,03,13,30,24.60
2013,07,03,13,31,24.60
2013,07,03,13,32,24.60
2013,07,03,13,33,24.60
2013,07,03,13,34,24.60
2013,07,03,13,35,24.60
2013,07,03,13,36,24.50
2013,07,03,13,37,24.50
2013,07,03,13,38,24.40
2013,07,03,13,39,24.40
2013,07,03,13,40,24.40
2013,07,03,13,41,24.40
2013,07,03,13,42,24.40
2013,07,03,13,43,24.40
2013,07,03,13,44,24.40
2013,07,03,13,45,24.40
2013,07,03,13,46,24.40
2013,07,03,13,47,24.40
2013,07,03,13,48,24.50
2013,07,03,13,49,24.50
2013,07,03,13,50,24.60
2013,07,03,13,51,24.60
2013,07,03,13,52,24.60
2013,07,03,13,53,24.60
2013,07,03,13,54,24.60
2013,07,03,13,55,24.50
2013,07,03,13,56,24.50
2013,07,03,13,57,24.60
2013,07,03,13,58,24.60
2013,07,03,13,59,24.70
2013,07,03,14,00,24.80
2013,07,03,14,01,24.80
2013,07,03,14,02,24.90
2013,07,03,14,03,24.80
2013,07,03,14,04,24.80
2013,07,03,14,05,24.80
2013,07,03,14,06,24.80
2013,07,03,14,07,24.90
2013,07,03,14,08,24.80
2013,07,03,14,09,24.80
2013,07,03,14,10,24.80
2013,07,03,14,11,24.90
2013,07,03,14,12,24.90
2013,07,03,14,13,24.90
2013,07,03,14,14,24.90
2013,07,03,14,15,24.90
2013,07,03,14,16,24.90
2013,07,03,14,17,24.90
2013,07,03,14,18,24.90
2013,07,03,14,19,24.90
2013,07,03,14,20,24.90
2013,07,03,14,21,25.00
2013,07,03,14,22,25.00
2013,07,03,14,23,25.00
2013,07,03,14,24,25.10
2013,07,03,14,25,25.10
2013,07,03,14,26,25.10
2013,07,03,14,27,25.10
2013,07,03,14,28,25.00
2013,07,03,14,29,25.00
2013,07,03,14,30,25.00
2013,07,03,14,31,25.00
2013,07,03,14,32,25.00
2013,07,03,14,33,25.00
2013,07,03,14,34,25.00
2013,07,03,14,35,25.10
2013,07,03,14,36,25.10
2013,07,03,14,37,25.10
2013,07,03,14,38,25.20
2013,07,03,14,39,25.20
2013,07,03,14,40,25.20
2013,07,03,14,41,25.20
2013,07,03,14,42,25.30
2013,07,03,14,43,25.40
2013,07,03,14,44,25.40
2013,07,03,14,45,25.50
2013,07,03,14,46,25.60
2013,07,03,14,47,25.60
2013,07,03,14,48,25.60
2013,07,03,14,49,25.50
2013,07,03,14,50,25.60
2013,07,03,14,51,25.60
2013,07,03,14,52,25.60
2013,07,03,14,53,25.60
2013,07,03,14,54,25.70
2013,07,03,14,55,25.70
2013,07,03,14,56,25.80
2013,07,03,14,57,25.70
2013,07,03,14,58,25.80
2013,07,03,14,59,25.80
2013,07,03,15,00,25.80
2013,07,03,15,01,25.70
2013,07,03,15,02,25.70
2013,07,03,15,03,25.60
2013,07,03,15,04,25.70
2013,07,03,15,05,25.70
2013,07,03,15,06,25.70
2013,07,03,15,07,25.70
2013,07,03,15,08,25.70
2013,07,03,15,09,25.60
2013,07,03,15,10,25.50
2013,07,03,15,11,25.50
2013,07,03,15,12,25.40
2013,07,03,15,13,25.40
2013,07,03,15,14,25.40
2013,07,03,15,15,25.40
2013,07,03,15,16,25.30
2013,07,03,15,17,25.30
2013,07,03,15,18,25.30
2013,07,03,15,19,25.30
2013,07,03,15,20,25.20
2013,07,03,15,21,25.20
2013,07,03,15,22,25.30
2013,07,03,15,23,25.30
2013,07,03,15,24,25.30
2013,07,03,15,25,25.40
2013,07,03,15,26,25.40
2013,07,03,15,27,25.50
2013,07,03,15,28,25.50
2013,07,03,15,29,25.40
2013,07,03,15,30,25.40
2013,07,03,15,31,25.30
2013,07,03,15,32,25.30
2013,07,03,15,33,25.30
2013,07,03,15,34,25.30
2013,07,03,15,35,25.20
2013,07,03,15,36,25.10
2013,07,03,15,37,25.10
2013,07,03,15,38,25.10
2013,07,03,15,39,25.10
2013,07,03,15,40,25.10
2013,07,03,15,41,25.10
2013,07,03,15,42,25.20
2013,07,03,15,43,25.30
2013,07,03,15,44,25.30
2013,07,03,15,45,25.40
2013,07,03,15,46,25.40
2013,07,03,15,47,25.40
2013,07,03,15,48,25.40
2013,07,03,15,49,25.40
2013,07,03,15,50,25.40
2013,07,03,15,51,25.40
2013,07,03,15,52,25.40
2013,07,03,15,53,25.50
2013,07,03,15,54,25.50
2013,07,03,15,55,25.50
2013,07,03,15,56,25.50
2013,07,03,15,57,25.50
2013,07,03,15,58,25.60
2013,07,03,15,59,25.60
2013,07,03,16,00,25.60
2013,07,03,16,01,25.60
2013,07,03,16,02,25.60
2013,07,03,16,03,25.60
2013,07,03,16,04,25.60
2013,07,03,16,05,25.60
2013,07,03,16,06,25.50
2013,07,03,16,07,25.50
2013,07,03,16,08,25.50
2013,07,03,16,09,25.50
2013,07,03,16,10,25.50
2013,07,03,16,11,25.50
2013,07,03,16,12,25.50
2013,07,03,16,13,25.40
2013,07,03,16,14,25.40
2013,07,03,16,15,25.40
2013,07,03,16,16,25.40
2013,07,03,16,17,25.40
2013,07,03,16,18,25.30
2013,07,03,16,19,25.30
2013,07,03,16,20,25.30
2013,07,03,16,21,25.30
2013,07,03,16,22,25.30
2013,07,03,16,23,25.30
2013,07,03,16,24,25.30
2013,07,03,16,25,25.30
2013,07,03,16,26,25.30
2013,07,03,16,27,25.20
2013,07,03,16,28,25.20
2013,07,03,16,29,25.20
2013,07,03,16,30,25.30
2013,07,03,16,31,25.30
2013,07,03,16,32,25.30
2013,07,03,16,33,25.30
2013,07,03,16,34,25.30
2013,07,03,16,35,25.30
2013,07,03,16,36,25.40
2013,07,03,16,37,25.30
2013,07,03,16,38,25.30
2013,07,03,16,39,25.30
2013,07,03,16,40,25.40
2013,07,03,16,41,25.40
2013,07,03,16,42,25.40
2013,07,03,16,43,25.40
2013,07,03,16,44,25.50
2013,07,03,16,45,25.50
2013,07,03,16,46,25.40
2013,07,03,16,47,25.40
2013,07,03,16,48,25.40
2013,07,03,16,49,25.40
2013,07,03,16,50,25.30
2013,07,03,16,51,25.30
2013,07,03,16,52,25.30
2013,07,03,16,53,25.30
2013,07,03,16,54,25.20
2013,07,03,16,55,25.30
2013,07,03,16,56,25.30
2013,07,03,16,57,25.40
2013,07,03,16,58,25.40
2013,07,03,16,59,25.40
2013,07,03,17,00,25.30
2013,07,03,17,01,25.30
2013,07,03,17,02,25.30
2013,07,03,17,03,25.30
2013,07,03,17,04,25.20
2013,07,03,17,05,25.20
2013,07,03,17,06,25.20
2013,07,03,17,07,25.10
2013,07,03,17,08,25.10
2013,07,03,17,09,25.10
2013,07,03,17,10,25.10
2013,07,03,17,11,25.20
2013,07,03,17,12,25.20
2013,07,03,17,13,25.20
2013,07,03,17,14,25.20
2013,07,03,17,15,25.20
2013,07,03,17,16,25.20
2013,07,03,17,17,25.10
2013,07,03,17,18,25.10
2013,07,03,17,19,25.10
2013,07,03,17,20,25.20
2013,07,03,17,21,25.20
2013,07,03,17,22,25.20
2013,07,03,17,23,25.20
2013,07,03,17,24,25.10